Regional Weather Roundup
Issued by NWS

Home | Current Version | Previous Version | Graphics & Text | Print | Product List | Glossary Off
Versions: 1 2 3 4 5 6 7 8 9 10 11 12 13 14 15 16 17 18 19 20 21 22 23 24 25 26 27 28 29 30 31 32 33 34 35 36 37 38 39 40 41 42 43 44 45 46 47 48 49 50

000
ASUS43 KDTX 301610
RWRMI
MICHIGAN HOURLY REGIONAL WEATHER ROUNDUP
NATIONAL WEATHER SERVICE DETROIT/PONTIAC MI
1200 PM EDT THU MAR 30 2017

NOTE: "FAIR" INDICATES FEW OR NO CLOUDS BELOW 12,000 FEET WITH NO
SIGNIFICANT WEATHER AND/OR OBSTRUCTION TO VISIBILITY.

MIZ047>049-052>055-059>063-066>070-074>076-081>083-301700-
SOUTHEAST LOWER MICHIGAN

CITY           SKY/WX    TMP DP  RH WIND       PRES   REMARKS
ADRIAN         LGT RAIN  39  37  92 E15G21    29.90F WCI  31
ALMA           LGT RAIN  36  36  99 E16       29.97F WCI  26
ANN ARBOR      CLOUDY    38  37  97 NE14      29.93F WCI  30
BAD AXE        LGT SNOW  34  32  93 E9G16     30.07F WCI  26
CARO           LGT SNOW  33  33  98 E9        30.01F WCI  25
DETROIT CITY   LGT RAIN  36  36 100 E16G22    30.00F FOG     WCI  26
DETROIT        LGT RAIN  38  36  92 E16G22    29.97F FOG     WCI  29
FLINT          LGT RAIN  36  34  92 E15       29.97F WCI  27
GROSSE ILE     LGT RAIN  38  36  93 NE17G23   29.96F WCI  28
HILLSDALE      CLOUDY    37  36  93 E17G30    29.85F WCI  28
HOWELL         LGT SNOW  37  34  92 E18G24    29.90F WCI  26

CITY           SKY/WX    TMP DP  RH WIND       PRES   REMARKS
JACKSON        LGT RAIN  38  32  79 E18G30    29.86F WCI  28
LAMBERTVILLE   LGT RAIN  40  37  89 E16G28    29.90F WCI  31
LANSING        LGT RAIN  38  35  89 E22G28    29.89F WCI  27
LAPEER         LGT RAIN  34  33  97 E8        30.01F WCI  27
MASON          LGT RAIN  38  37  96 E10G20    29.89F WCI  31
MONROE         CLOUDY    38  38  97 E14G23    29.93F WCI  30
MT. CLEMENS    LGT RAIN  36  36  99 E13       30.01F FOG     WCI  28
PONTIAC        RAIN      35  32  88 E13       29.97F FOG     WCI  26
PORT HOPE        N/A     36  31  82 E14       30.08F WCI  27
PORT HURON     LGT RAIN  34  32  93 E8        30.05F WCI  27
TRI CITIES     LGT SNOW  34  33  96 E15       30.00F FOG     WCI  24
MIDLAND        LGT SNOW  34  33  96 E12G17    30.00F WCI  25
TROY           LGT RAIN  36  34  91 NE14      30.02F WCI  27
SAGINAW HB     FLURRIES  34  32  93 E13       29.99F WCI  25
$$
MIZ043>046-050>051-056>058-064>065-071>073-077>080-301700-
SOUTHWEST LOWER MICHIGAN

CITY           SKY/WX    TMP DP  RH WIND       PRES   REMARKS
BATTLE CREEK   CLOUDY    40  38  93 E13G25    29.84F WCI  32
BENTON HARBOR    N/A    N/A N/A N/A MISG        N/A
BIG RAPIDS     FLURRIES  35  33  92 E13       29.95F WCI  26
COLDWATER      LGT RAIN  42  39  91 E12G21    29.84R
FREMONT        LGT RAIN  38  36  94 E13G23    29.90F WCI  30
HOLLAND        LGT RAIN  41  38  89 E17G23    29.83S
GRAND RAPIDS   CLOUDY    38  38 100 E21G31    29.87F WCI  28
IONIA          CLOUDY    37  35  94 E15G22    29.89F WCI  27
KALAMAZOO      CLOUDY    42  37  82 E13G18    29.84R
LUDINGTON      LGT RAIN  38  37  96 E16       29.92F WCI  30
MARSHALL       LGT RAIN  40  39  98 E17G23    29.86R WCI  31
MOUNT PLEASANT LGT SNOW  33  32  96 E9        29.99S WCI  26
MUSKEGON       LGT RAIN  40  37  89 E17G29    29.85F WCI  31
SOUTH HAVEN    CLOUDY    44  40  87 E15G25    29.80S
$$
MIZ016>042-301700-
NORTHERN LOWER MICHIGAN

CITY           SKY/WX    TMP DP  RH WIND       PRES   REMARKS
ALPENA         CLOUDY    38  28  67 E15       30.12F WCI  29
BEAVER ISLAND  LGT SNOW  33  32  96 E12       30.08F WCI  24
BELLAIRE       CLOUDY    41  27  57 E7        30.04F
CADILLAC       LGT SNOW  36  33  90 E14G23    29.96F WCI  27
CHARLEVOIX     CLOUDY    38  29  69 E13       30.08F WCI  30
FRANKFORT      DRIZZLE   39  32  75 E8        29.98F WCI  34
GAYLORD        CLOUDY    39  26  59 SE15G23   30.04F WCI  31
GRAYLING       CLOUDY    37  27  65 E17       30.03F WCI  28
HARBOR SPRINGS CLOUDY    38  29  68 E13       30.07F WCI  30
HOUGHTON LAKE  CLOUDY    38  28  67 E17G23    30.00F WCI  28
MANISTEE       LGT RAIN  38  36  92 E15       29.95F WCI  29
OSCODA         CLOUDY    38  30  72 E8G16     30.10F WCI  32
PELLSTON       CLOUDY    38  26  62 E12       30.09F WCI  30
ROGERS CITY    CLOUDY    38  28  68 SE13      30.14F WCI  30
TRAVERSE CITY  CLOUDY    43  28  55 E16       30.01F
$$
MIZ007>008-015-301700-
EASTERN UPPER MICHIGAN

CITY           SKY/WX    TMP DP  RH WIND       PRES   REMARKS
KINROSS        CLOUDY    35  25  66 E18G24    30.14F WCI  24
MACKINAC ISLAN CLOUDY    34  30  86 E12G21    30.11F WCI  25
NEWBERRY       CLOUDY    36  26  67 E9        30.10F WCI  29
S. S. MARIE    CLOUDY    39  23  52 E8G20     30.14F WCI  33
MUNISING         N/A     40  28  62 SE12G17   30.07F WCI  33
$$
MIZ004>006-011>014-085-301700-
CENTRAL UPPER MICHIGAN

CITY           SKY/WX    TMP DP  RH WIND       PRES   REMARKS
MANISTIQUE     LGT SNOW  33  32  97 E10       30.08F WCI  25
ESCANABA       FLURRIES  34  32  92 E9        30.06F WCI  27
MENOMINEE      LGT SNOW  33  32  96 NE16G22   30.02F FOG     WCI  23
SAWYER-GWINN   CLOUDY    36  27  69 SE7       30.05F WCI  30
$$
MIZ001>003-009>011-084-301700-
WESTERN UPPER MICHIGAN

CITY           SKY/WX    TMP DP  RH WIND       PRES   REMARKS
IRON MOUNTAIN  CLOUDY    35  27  72 E8        30.00F WCI  29
HOUGHTON       CLOUDY    35  25  66 E17       30.03F WCI  25
COPPER HARBOR    N/A     37  25  61 S9G18     30.07F WCI  30
IRONWOOD       CLOUDY    41  29  62 E6        29.98F
$$

ABBREVIATIONS USED IN REMARKS
   TC - TEMPERATURE IN CELSIUS
  WCI - WIND CHILL INDEX
   HX - HEAT INDEX
  VSB - VISIBILITY





USA.gov is the U.S. government's official web portal to all federal, state and local government web resources and services.